swift.com alexa rank chart, swift.com alexa rank daily changes

swift.com alexa rank chart, swift.com alexa rank daily changes

swift.com
Actual rank:
35 931

RANK HISTORY

Date Rank Diff
2018/02/22 35 931 +7 826
2018/02/21 28 105 -38 917
2018/02/20 67 022 -6 885
2018/02/19 73 907 +2 770
2018/02/18 71 137 +34 908
2018/02/17 36 229 -21 869
2018/02/16 58 098 +2 329
2018/02/15 55 769 +16 729
2018/02/14 39 040 -46 409
2018/02/13 85 449 -18 326
2018/02/12 103 775 +23 550
2018/02/11 80 225 +36 495
2018/02/10 43 730 +13 843
2018/02/09 29 887 -6 388
2018/02/08 36 275 +1 552
2018/02/07 34 723 -41 226
2018/02/06 75 949 -69 222
2018/02/05 145 171 +102 560
2018/02/04 42 611 -6 453
2018/02/03 49 064 -11 169
2018/02/02 60 233 +4 296
2018/02/01 55 937 -6 759
2018/01/31 62 696 +19 965
2018/01/30 42 731 +841
2018/01/29 41 890 +324
2018/01/28 41 566 +547
2018/01/27 41 019 -376
2018/01/26 41 395 +84
2018/01/25 41 311 -364
2018/01/24 41 675 +385
2018/01/23 41 290 +662
2018/01/22 40 628 +618
2018/01/21 40 010 +678
2018/01/20 39 332 +697
2018/01/19 38 635 -203
2018/01/18 38 838 +855
2018/01/17 37 983 -816
2018/01/16 38 799 +811
2018/01/15 37 988 +844
2018/01/14 37 144 +1 512
2018/01/13 35 632 -530
2018/01/12 36 162 -484
2018/01/11 36 646 -403
2018/01/10 37 049 +282
2018/01/09 36 767 +981
2018/01/08 35 786 +351
2018/01/07 35 435 -273
2018/01/06 35 708 +360
2018/01/05 35 348 -773
2018/01/04 36 121 -625
2018/01/03 36 746 +300
2018/01/02 36 446 +97
2018/01/01 36 349 +338
2017/12/31 36 011 +576
2017/12/30 35 435 -561
2017/12/29 35 996 +109
2017/12/28 35 887 -275
2017/12/27 36 162 +1
2017/12/26 36 161 +250
2017/12/25 35 911 +108
2017/12/24 35 803

WIDGET FOR YOUR SITE

DOMAINS WITH THE NEAREST RANK

Domain Rank
jurymedia.net 35 926
aphorismen.de 35 927
kemlu.go.id 35 928
eroticmonkey.com 35 929
shoutengine.com 35 930
swift.com 35 931
lookbook.nu 35 932
preservearticles.com 35 933
cainer.com 35 934
ltu.se 35 935
khl.ru 35 936

DOMAINS WITH THE NEAREST RANK BY TLD .com

Domain Rank
kansas.com 35 922
360daily.com 35 923
humankinetics.com 35 925
eroticmonkey.com 35 929
shoutengine.com 35 930
swift.com 35 931
preservearticles.com 35 933
cainer.com 35 934
filmschoolrejects.com 35 938
arianpal.com 35 940
lapolicegear.com 35 941